Weather History for Denver, CO

Change the Weather History Date:

Tuesday, February 12, 2013

  Actual Average (KDEN) Record (KDEN)
Temperature  
Mean Temperature 28 °F 32 °F  
Max Temperature 41 °F 45 °F 72 °F (1954)
Min Temperature 15 °F 18 °F -21 °F (1905)
Degree Days  
Heating Degree Days 37 33  
Month to date heating degree days 406  
Since 1 July heating degree days 3937  
Cooling Degree Days 0 0  
Month to date cooling degree days 0  
Year to date cooling degree days 0  
Moisture  
Dew Point 9 °F    
Average Humidity 60    
Maximum Humidity 86    
Minimum Humidity 15    
Precipitation  
Precipitation 0.00 in 0.01 in 0.46 in (1951)
Month to date precipitation 0.15  
Year to date precipitation 0.56  
Snow  
Snow 0.00 in - - ()
Month to date snowfall  
Since 1 July snowfall  
Snow Depth -    
Sea Level Pressure  
Sea Level Pressure 29.99 in    
Wind  
Wind Speed 6 mph (SW)    
Max Wind Speed 13 mph    
Max Gust Speed -    
Visibility 10 miles    
Events      
T = Trace of Precipitation, MM = Missing Value Source: NWS Daily Summary

Daily Weather History Graph

Daily Weather History Graph

Search for Another Location

Airport:

Trip Planner

Search our weather history database for the weather conditions in past years. The results will help you decide how hot, cold, wet, or windy it might be!

Date:

Astronomy

Feb. 12, 2013 Rise Set
Actual Time 6:54 AM MST 5:31 PM MST
Civil Twilight 6:26 AM MST 5:59 PM MST
Nautical Twilight 5:54 AM MST 6:30 PM MST
Astronomical Twilight 5:23 AM MST 7:02 PM MST
Moon 7:53 AM MST (2/12) 8:34 PM MST (2/12)
Length of Visible Light 11h 32m
Length of Day
10h 37m
Waxing Crescent, 8% of the Moon is Illuminated
Feb 12
Waxing Crescent
Feb 17
First Quarter
Feb 25
Full
Mar 4
Last Quarter
Mar 11
New

Hourly Weather History & Observations

Time (MST) Temp. Windchill Dew Point Humidity Pressure Visibility Wind Dir Wind Speed Gust Speed Precip Events Conditions
12:08 AM 21.2 °F - 14.0 °F 74% 29.99 in 10.0 mi Calm Calm - N/A   Clear
12:28 AM 19.4 °F 11.5 °F 14.0 °F 80% 29.99 in 10.0 mi SW 5.8 mph - N/A   Clear
12:48 AM 21.2 °F 14.9 °F 14.0 °F 74% 29.99 in 10.0 mi SW 4.6 mph - N/A   Clear
1:08 AM 17.6 °F 10.7 °F 12.2 °F 79% 29.99 in 10.0 mi SSW 4.6 mph - N/A   Clear
1:28 AM 19.4 °F 11.5 °F 15.8 °F 86% 29.98 in 10.0 mi SSW 5.8 mph - N/A   Clear
1:47 AM 21.2 °F 12.6 °F 15.8 °F 80% 29.99 in 10.0 mi SW 6.9 mph - N/A   Clear
2:07 AM 21.2 °F 11.7 °F 15.8 °F 80% 29.98 in 10.0 mi SSW 8.1 mph - N/A   Clear
2:28 AM 19.4 °F 10.4 °F 14.0 °F 80% 29.99 in 10.0 mi SSW 6.9 mph - N/A   Clear
2:48 AM 21.2 °F 11.7 °F 15.8 °F 80% 29.99 in 10.0 mi SSW 8.1 mph - N/A   Clear
3:08 AM 19.4 °F 8.6 °F 14.0 °F 80% 29.98 in 10.0 mi SSW 9.2 mph - N/A   Clear
3:28 AM 21.2 °F 11.7 °F 15.8 °F 80% 29.98 in 10.0 mi SSW 8.1 mph - N/A   Clear
3:48 AM 21.2 °F 11.7 °F 15.8 °F 80% 29.98 in 10.0 mi SSW 8.1 mph - N/A   Clear
4:08 AM 15.8 °F 5.1 °F 12.2 °F 86% 29.97 in 10.0 mi SSW 8.1 mph - N/A   Clear
4:27 AM 21.2 °F 11.7 °F 15.8 °F 80% 29.98 in 10.0 mi SSW 8.1 mph - N/A   Clear
4:47 AM 21.2 °F 12.6 °F 14.0 °F 74% 29.99 in 10.0 mi SW 6.9 mph - N/A   Clear
5:08 AM 19.4 °F 9.5 °F 14.0 °F 80% 30.00 in 10.0 mi WSW 8.1 mph - N/A   Clear
5:28 AM 19.4 °F 8.6 °F 14.0 °F 80% 30.00 in 10.0 mi SW 9.2 mph - N/A   Clear
5:47 AM 21.2 °F 11.7 °F 14.0 °F 74% 30.00 in 10.0 mi SW 8.1 mph - N/A   Clear
6:08 AM 19.4 °F 8.6 °F 12.2 °F 74% 30.00 in 10.0 mi WSW 9.2 mph - N/A   Clear
6:28 AM 19.4 °F 9.5 °F 12.2 °F 74% 30.00 in 10.0 mi SW 8.1 mph - N/A   Clear
6:48 AM 19.4 °F 6.6 °F 12.2 °F 74% 29.99 in 10.0 mi SSW 12.7 mph - N/A   Clear
7:08 AM 19.4 °F 7.2 °F 10.4 °F 68% 30.00 in 10.0 mi SW 11.5 mph - N/A   Clear
7:27 AM 21.2 °F 9.5 °F 10.4 °F 63% 29.99 in 10.0 mi SW 11.5 mph - N/A   Clear
7:48 AM 21.2 °F 9.5 °F 10.4 °F 63% 30.00 in 10.0 mi SW 11.5 mph - N/A   Clear
8:01 AM 23.0 °F 13.1 °F 10.4 °F 59% 30.00 in 10.0 mi SW 9.2 mph - N/A   Clear
8:54 AM 28.4 °F 18.5 °F 12.2 °F 51% 30.00 in 50.0 mi WSW 11.5 mph - N/A   Clear
9:48 AM 33.8 °F 27.7 °F 6.8 °F 32% 30.00 in 50.0 mi West 6.9 mph - N/A   Clear
10:50 AM 37.4 °F 32.8 °F -0.4 °F 20% 30.02 in 50.0 mi WNW 5.8 mph - N/A   Partly Cloudy
11:48 AM 39.2 °F 32.0 °F -5.8 °F 15% 30.01 in 50.0 mi NNE 11.5 mph - N/A   Partly Cloudy
12:48 PM 39.2 °F 33.0 °F -5.8 °F 15% 30.00 in 50.0 mi North 9.2 mph - N/A   Partly Cloudy
1:50 PM 39.2 °F 34.2 °F -5.8 °F 15% 29.98 in 50.0 mi North 6.9 mph - N/A   Partly Cloudy
2:50 PM 41.0 °F 37.1 °F -2.2 °F 16% 29.98 in 50.0 mi North 5.8 mph - N/A   Partly Cloudy
3:50 PM 41.0 °F 37.1 °F -0.4 °F 18% 29.98 in 50.0 mi North 5.8 mph - N/A   Partly Cloudy
5:52 PM 37.4 °F 32.8 °F -0.4 °F 20% 29.99 in 10.0 mi NNE 5.8 mph - N/A   Partly Cloudy
6:52 PM 26.6 °F 20.0 °F 1.4 °F 34% 30.00 in 10.0 mi SE 5.8 mph - N/A   Partly Cloudy
9:28 PM 21.2 °F 13.6 °F 5.0 °F 50% 30.00 in 10.0 mi SSE 5.8 mph - N/A   Clear
9:48 PM 19.4 °F 12.8 °F 5.0 °F 54% 30.01 in 10.0 mi South 4.6 mph - N/A   Clear
10:07 PM 23.0 °F 14.7 °F 6.8 °F 50% 30.01 in 10.0 mi SSW 6.9 mph - N/A   Clear
10:27 PM 19.4 °F 11.5 °F 5.0 °F 54% 30.00 in 10.0 mi South 5.8 mph - N/A   Clear
10:48 PM 19.4 °F 11.5 °F 6.8 °F 58% 30.00 in 10.0 mi South 5.8 mph - N/A   Clear
11:08 PM 21.2 °F 13.6 °F 6.8 °F 54% 29.99 in 10.0 mi South 5.8 mph - N/A   Clear
11:27 PM 23.0 °F 14.7 °F 6.8 °F 50% 29.99 in 10.0 mi South 6.9 mph - N/A   Clear
11:48 PM 19.4 °F 10.4 °F 6.8 °F 58% 30.00 in 10.0 mi South 6.9 mph - N/A   Clear